Location: *
(50.9167°S, 179.4000°W)
Time: 21:24:55
(UTC+00:00)

CZ-2D R/B - Pass Details

Date: 03 March 2024
Orbit: 790 x 844 km, 98.8° (Epoch: 16 April)

Event Time Altitude Azimuth Distance (km) Brightness Sun altitude
Exits shadow 13:31:25 34° 233° (SW) 1,350 3.3 -29.9°
Drops below altitude 10° 13:34:51 10° 206° (SSW) 2,459 5.0 -29.7°
Sets 13:37:22 0° 199° (SSW) 3,408 6.0 -29.5°
